Home > Weather > Oranienburg > Past weeks

Flag for Germany Past Weather in Oranienburg, Brandenburg, Germany — Yesterday and Last 2 Weeks

Now
70 °F

Broken clouds.


Feels Like: 70 °F
Forecast: 52 / 75 °F
Wind: 3 mph from North

Location: Berlin-Tegel

Current Time: May 27, 2016 at 6:14:13 PM

Latest Report: May 27, 2016 at 5:20 PM


Visibility: N/A

Pressure: 30.01 "Hg

Humidity: 43%

Dew Point: 46 °F

Location of OranienburgLocation

Past Weather in Oranienburg — Graph

°F

Oranienburg Temperature Yesterday

Maximum temperature yesterday: 61 °F (at 3:50 PM)
Minimum temperature yesterday: 54 °F (at 6:50 AM)
Average temperature yesterday: 57 °F

High & Low Weather Summary for the Past Weeks

 TemperatureHumidityPressure
High84 °F (May 22, 2:50 PM)100% (May 24, 5:20 AM)30.07 "Hg (May 24, 5:20 AM)
Low41 °F (May 16, 2:50 AM)20% (May 19, 2:50 PM)29.50 "Hg (May 13, 2:50 PM)
Average59 °F63%29.86 "Hg
* Reported May 12 4:20 PM — May 27 4:50 PM, Oranienburg, Weather by CustomWeather, © 2016

Note: Actual official high and low records may vary slightly from our data, if they occured in-between our weather recording intervals... More about our weather records

Advertising

Oranienburg Weather History for the Previous 24 Hours

Scroll right to see more
 ConditionsComfort  
Time TempWeatherWind HumidityBarometerVisibility
4:50 PM
Fri, May 27
70 °FBroken clouds.5 mph43%30.01 "HgN/A
4:20 PM70 °FPartly sunny.7 mph46%30.01 "HgN/A
3:50 PM68 °FPartly sunny.6 mph46%30.04 "HgN/A
3:20 PM68 °FPartly sunny.6 mph49%30.04 "HgN/A
2:50 PM68 °FPartly sunny.7 mph49%30.04 "HgN/A
2:20 PM68 °FBroken clouds.7 mph49%30.04 "HgN/A
1:50 PM66 °FBroken clouds.8 mph52%30.04 "HgN/A
1:20 PM68 °FBroken clouds.7 mph49%30.04 "HgN/A
12:50 PM68 °FBroken clouds.3 mph53%30.04 "HgN/A
12:20 PM66 °FBroken clouds.7 mph60%30.04 "HgN/A
11:50 AM66 °FBroken clouds.7 mph60%30.04 "HgN/A
11:20 AM64 °FBroken clouds.5 mph68%30.04 "HgN/A
10:50 AM64 °FBroken clouds.3 mph73%30.04 "HgN/A
10:20 AM64 °FPartly sunny.5 mph73%30.04 "HgN/A
9:50 AM61 °FPartly sunny.3 mph83%30.04 "HgN/A
9:20 AM59 °FPartly sunny.5 mph88%30.04 "HgN/A
8:50 AM57 °FPartly sunny.3 mph94%30.04 "Hg6 mi
8:20 AM55 °FPartly sunny.3 mph100%30.04 "Hg4 mi
7:50 AM55 °FFog.2 mph94%30.04 "Hg1 mi
7:20 AM54 °FFog.2 mph94%30.04 "Hg0 mi
6:50 AM52 °FFog.1 mph100%30.04 "Hg0 mi
6:20 AM52 °FFog.3 mph94%30.04 "Hg0 mi
5:50 AM50 °FFog.5 mph100%30.04 "Hg0 mi
5:20 AM50 °FFog.3 mph94%30.01 "Hg0 mi
4:50 AM48 °FFog.1 mph100%30.01 "Hg0 mi
4:20 AM48 °FFog.1 mph100%30.01 "Hg0 mi
3:50 AM48 °FFog.2 mph100%30.01 "Hg0 mi
3:20 AM48 °FFog.2 mph100%30.04 "Hg1 mi
2:50 AM50 °FFog.No wind94%30.01 "Hg1 mi
2:20 AM52 °FFog.1 mph94%30.04 "Hg1 mi
1:50 AM52 °FFog.1 mph94%30.04 "Hg6 mi
1:20 AM54 °FFog.2 mph94%30.04 "Hg6 mi
12:50 AM54 °FClear.5 mph94%30.04 "Hg6 mi
12:20 AM55 °FClear.2 mph88%30.04 "Hg10 mi
11:50 PM
Thu, May 26
57 °FClear.3 mph88%30.04 "Hg10 mi
11:20 PM55 °FClear.3 mph94%30.04 "Hg10 mi
10:50 PM57 °FClear.2 mph88%30.04 "Hg10 mi
10:20 PM55 °FClear.3 mph94%30.04 "Hg10 mi
9:50 PM55 °FSunny.3 mph94%30.01 "Hg10 mi
9:20 PM59 °FSunny.2 mph82%30.01 "Hg10 mi
8:50 PM59 °FPartly sunny.2 mph82%30.01 "HgN/A
8:20 PM59 °FPartly sunny.5 mph77%30.01 "HgN/A
7:50 PM61 °FPartly sunny.3 mph77%30.01 "Hg6 mi
7:20 PM61 °FPartly sunny.3 mph77%30.01 "Hg6 mi
6:50 PM61 °FPartly sunny.3 mph77%30.01 "Hg6 mi
6:20 PM61 °FPartly sunny.5 mph72%30.01 "Hg6 mi
Weather by CustomWeather, © 2016

See weather overviewHow to use our weather pages